Flag for Germany Weather past 2 weeks in Güstrow, Mecklenburg-Western Pomerania, Germany

Now
32 °F

Chilly.


Feels Like: 26 °F
Forecast: 21 / 27 °F
Wind: 7 mph from North

Location: Laage

Current Time: Dec 26, 2014 at 1:14:57 AM

Latest Report: Dec 26, 2014 at 12:20 AM


Visibility: 1 mi

Pressure: 30.21 "Hg

Humidity: 100%

Dew point: 32 °F

Location of GüstrowLocation

Historic Weather in Güstrow — Graph

°F

Güstrow temperature yesterday

Maximum temperature yesterday: 41 °F (at 12:20 AM)
Minimum temperature yesterday: 34 °F (at 8:20 PM)
Average temperature yesterday: 38 °F

Past Weeks' High & Low Weather Summary

 TemperatureHumidityPressure
High52 °F (Dec 18, 2:20 PM)100% (Dec 14, 12:20 AM)30.21 "Hg (Dec 14, 12:20 AM)
Low32 °F (Dec 14, 9:20 PM)71% (Dec 19, 8:20 PM)29.18 "Hg (Dec 12, 3:20 PM)
Average42 °F90%29.72 "Hg
* Reported Dec 10 11:20 PM — Dec 25 11:20 PM, Güstrow, Weather by CustomWeather, © 2014

Note: Actual official high and low records may vary slightly from our data, if they occured in-between our weather recording intervals... More about our weather records

Advertising

Güstrow weather history for previous 24 hours

 ConditionsComfort  
Time TempWeatherWind HumidityBarometerVisibility
11:20 PM
Dec 25
34 °FChilly.7 mph93%30.21 "Hg4 mi
10:20 PM34 °FChilly.9 mph93%30.18 "Hg4 mi
9:20 PM34 °FChilly.10 mph93%30.15 "Hg4 mi
8:20 PM34 °FChilly.14 mph93%30.12 "Hg1 mi
7:20 PM36 °FChilly.12 mph93%30.07 "Hg4 mi
6:20 PM36 °FChilly.10 mph93%30.01 "Hg3 mi
5:20 PM36 °FChilly.14 mph93%29.95 "Hg4 mi
4:20 PM37 °FPassing clouds.15 mph93%29.92 "HgN/A
3:20 PM39 °FPartly sunny.12 mph93%29.86 "HgN/A
2:20 PM39 °FLight rain. Partly sunny.14 mph93%29.83 "Hg5 mi
1:20 PM41 °FLight rain. Partly sunny.22 mph87%29.83 "HgN/A
12:20 PM41 °FLight rain. Partly sunny.21 mph87%29.80 "Hg4 mi
11:56 AM41 °FLight rain. Partly sunny.23 mph87%29.77 "Hg4 mi
11:20 AM41 °FQuite cool.23 mph93%29.77 "Hg4 mi
10:20 AM41 °FQuite cool.16 mph93%29.77 "Hg4 mi
9:20 AM39 °FChilly.12 mph93%29.80 "Hg3 mi
8:20 AM39 °FChilly.12 mph93%29.80 "Hg4 mi
7:20 AM39 °FChilly.13 mph93%29.80 "Hg3 mi
6:20 AM39 °FChilly.13 mph93%29.83 "Hg4 mi
5:20 AM39 °FChilly.14 mph87%29.83 "Hg4 mi
4:20 AM39 °FChilly.14 mph93%29.83 "Hg4 mi
3:20 AM39 °FChilly.14 mph87%29.86 "Hg3 mi
2:20 AM39 °FChilly.13 mph93%29.86 "Hg3 mi
1:20 AM39 °FChilly.13 mph93%29.83 "Hg4 mi
Weather by CustomWeather, © 2014

See weather overviewHow to use our weather pages